Weather History for Ocala, FL

Change the Weather History Date:

Wednesday, May 8, 2013

  Actual Average Record
Temperature  
Mean Temperature 66 °F -  
Max Temperature 80 °F 85 °F 93 °F (2002)
Min Temperature 53 °F 60 °F 51 °F (2007)
Cooling Degree Days 2    
Growing Degree Days 16 (Base 50)    
Moisture  
Dew Point 55 °F    
Average Humidity 77    
Maximum Humidity 94    
Minimum Humidity 42    
Precipitation  
Precipitation 0.00 in - - ()
Sea Level Pressure  
Sea Level Pressure 30.09 in    
Wind  
Wind Speed 3 mph (SW)    
Max Wind Speed 17 mph    
Max Gust Speed 17 mph    
Visibility 10 miles    
Events      
Averages and records for this station are not official NWS values.
T = Trace of Precipitation, MM = Missing Value Source: NWS Daily Summary

Daily Weather History Graph

Daily Weather History Graph

Search for Another Location

Airport:

Trip Planner

Search our weather history database for the weather conditions in past years. The results will help you decide how hot, cold, wet, or windy it might be!

Date:

Astronomy

May. 08, 2013 Rise Set
Actual Time 6:41 AM EDT 8:09 PM EDT
Civil Twilight 6:16 AM EDT 8:35 PM EDT
Nautical Twilight 5:45 AM EDT 9:05 PM EDT
Astronomical Twilight 5:13 AM EDT 9:37 PM EDT
Moon 5:42 AM EDT (5/8) 7:10 PM EDT (5/8)
Length of Visible Light 14h 19m
Length of Day
13h 28m
Waning Crescent, 2% of the Moon is Illuminated
May 8
Waning Crescent
May 9
New
May 18
First Quarter
May 25
Full
May 31
Last Quarter

Hourly Weather History & Observations

Time (EDT) Temp. Heat Index Dew Point Humidity Pressure Visibility Wind Dir Wind Speed Gust Speed Precip Events Conditions
12:15 AM 57.2 °F - 53.6 °F 88% 30.06 in 10.0 mi Calm Calm - N/A   Clear
12:35 AM 57.2 °F - 53.6 °F 88% 30.06 in 10.0 mi Calm Calm - N/A   Clear
12:55 AM 57.2 °F - 53.6 °F 88% 30.06 in 10.0 mi Calm Calm - N/A   Clear
1:15 AM 55.4 °F - 53.6 °F 94% 30.06 in 10.0 mi Calm Calm - N/A   Clear
1:35 AM 55.4 °F - 51.8 °F 88% 30.06 in 10.0 mi South 3.5 mph - N/A   Clear
1:55 AM 55.4 °F - 53.6 °F 94% 30.05 in 10.0 mi Calm Calm - N/A   Clear
2:15 AM 55.4 °F - 51.8 °F 88% 30.05 in 8.0 mi South 4.6 mph - N/A   Clear
2:35 AM 53.6 °F - 51.8 °F 94% 30.05 in 10.0 mi South 3.5 mph - N/A   Clear
2:55 AM 55.4 °F - 51.8 °F 88% 30.04 in 10.0 mi Calm Calm - N/A   Clear
3:15 AM 55.4 °F - 51.8 °F 88% 30.04 in 10.0 mi South 4.6 mph - N/A   Clear
3:35 AM 53.6 °F - 50.0 °F 88% 30.04 in 10.0 mi South 3.5 mph - N/A   Clear
3:55 AM 55.4 °F - 51.8 °F 88% 30.04 in 10.0 mi South 4.6 mph - N/A   Clear
4:15 AM 55.4 °F - 51.8 °F 88% 30.04 in 10.0 mi SSW 3.5 mph - N/A   Clear
4:35 AM 55.4 °F - 51.8 °F 88% 30.05 in 7.0 mi SSW 3.5 mph - N/A   Clear
4:55 AM 55.4 °F - 51.8 °F 88% 30.05 in 7.0 mi Calm Calm - N/A   Clear
5:15 AM 53.6 °F - 51.8 °F 94% 30.05 in 8.0 mi SSW 3.5 mph - N/A   Clear
5:35 AM 55.4 °F - 51.8 °F 88% 30.05 in 8.0 mi SSW 3.5 mph - N/A   Clear
5:55 AM 55.4 °F - 51.8 °F 88% 30.06 in 10.0 mi Calm Calm - N/A   Clear
6:15 AM 53.6 °F - 51.8 °F 94% 30.06 in 5.0 mi Calm Calm - N/A   Clear
6:35 AM 53.6 °F - 50.0 °F 88% 30.07 in 8.0 mi South 3.5 mph - N/A   Clear
6:50 AM 53.6 °F - 50.0 °F 88% 30.07 in 6.0 mi South 3.5 mph - N/A   Clear
7:50 AM 57.2 °F - 53.6 °F 88% 30.10 in 10.0 mi South 3.5 mph - N/A   Clear
8:50 AM 66.2 °F - 60.8 °F 83% 30.12 in 10.0 mi Calm Calm - N/A   Clear
9:50 AM 69.8 °F - 60.8 °F 73% 30.13 in 10.0 mi NW 5.8 mph - N/A   Scattered Clouds
10:50 AM 73.4 °F - 59.0 °F 61% 30.13 in 10.0 mi WNW 4.6 mph - N/A   Mostly Cloudy
11:50 AM 75.2 °F - 57.2 °F 53% 30.13 in 10.0 mi WNW 4.6 mph - N/A   Mostly Cloudy
12:50 PM 75.2 °F - 57.2 °F 53% 30.11 in 10.0 mi WSW 6.9 mph - N/A   Scattered Clouds
1:50 PM 77.0 °F - 57.2 °F 50% 30.10 in 10.0 mi West 9.2 mph - N/A   Mostly Cloudy
2:50 PM 77.0 °F - 57.2 °F 50% 30.10 in 10.0 mi West 9.2 mph - N/A   Mostly Cloudy
3:50 PM 77.0 °F - 57.2 °F 50% 30.08 in 10.0 mi West 6.9 mph - N/A   Scattered Clouds
4:50 PM 80.6 °F 80.5 °F 55.4 °F 42% 30.07 in 10.0 mi WSW 17.3 mph - N/A   Scattered Clouds
5:50 PM 78.8 °F - 55.4 °F 44% 30.07 in 10.0 mi WSW 10.4 mph - N/A   Partly Cloudy
6:50 PM 75.2 °F - 55.4 °F 50% 30.08 in 10.0 mi WSW 11.5 mph 17.3 mph N/A   Clear
7:55 PM 71.6 °F - 57.2 °F 60% 30.10 in 10.0 mi WSW 8.1 mph - N/A   Clear
8:15 PM 71.6 °F - 57.2 °F 60% 30.10 in 10.0 mi WSW 6.9 mph - N/A   Clear
8:35 PM 69.8 °F - 57.2 °F 64% 30.11 in 10.0 mi WSW 6.9 mph - N/A   Clear
8:55 PM 69.8 °F - 57.2 °F 64% 30.11 in 10.0 mi WSW 4.6 mph - N/A   Clear
9:15 PM 68.0 °F - 57.2 °F 68% 30.12 in 10.0 mi WSW 4.6 mph - N/A   Clear
9:35 PM 66.2 °F - 59.0 °F 78% 30.13 in 10.0 mi WSW 3.5 mph - N/A   Clear
9:55 PM 64.4 °F - 57.2 °F 77% 30.13 in 10.0 mi Calm Calm - N/A   Clear
10:15 PM 62.6 °F - 57.2 °F 82% 30.13 in 10.0 mi Calm Calm - N/A   Clear
10:35 PM 64.4 °F - 57.2 °F 77% 30.14 in 10.0 mi Calm Calm - N/A   Clear
10:55 PM 62.6 °F - 57.2 °F 82% 30.15 in 10.0 mi Calm Calm - N/A   Clear
11:15 PM 60.8 °F - 55.4 °F 82% 30.15 in 10.0 mi Calm Calm - N/A   Clear
11:35 PM 60.8 °F - 57.2 °F 88% 30.15 in 10.0 mi Calm Calm - N/A   Clear
11:55 PM 60.8 °F - 57.2 °F 88% 30.15 in 10.0 mi Calm Calm - N/A   Clear